Location: Grand Rapids
(42.9630°N, 85.6680°W)
Time: 03:19:34
(UTC-04:00)

S-56A Canister/Altair - Pass Details

Date: 03 June 2024
Orbit: 637 x 2489 km, 38.9° (Epoch: 22 June)

Event Time Altitude Azimuth Distance (km) Brightness Sun altitude
Rises 10:33:35 0° 285° (WNW) 5,767 11.6 46.3°
Reaches altitude 10° 10:38:21 10° 275° (W) 4,502 11.1 47.1°
Maximum altitude 10:47:38 28° 224° (SW) 2,684 10.4 48.8°
Drops below altitude 10° 10:54:32 10° 169° (SSE) 3,266 11.1 50.0°
Sets 10:57:24 0° 157° (SSE) 3,978 11.5 50.5°
